This demonstration page uses our WeatherBlox Daily Observations layout. Learn more.

Left ArrowRight Arrow

34.02893, -84.19858

Hourly Observations for July 4, 2018

Temp ( °F °C ) Dew Point ( °F °C ) Humidity (%) Winds ( mph kmh ) Pressure ( in mb ) Visibility ( mi km ) Precip ( " mm )
12:19 am 00:19 Mostly Cloudy 79 26.1 69 20.6 72 72 Calm 30.12 1020 10 16 0.00 0.00
12:46 am 00:46 Cloudy with Nearby Thunderstorms 79 26.1 69 20.6 72 72 VRB 5 7 30.12 1020 10 16 0.00 0.00
12:53 am 00:53 Cloudy with Nearby Thunderstorms 79 26.1 69 20.6 72 72 ENE 9 15 30.13 1020 9 14 0.00 0.03
12:58 am 00:58 Cloudy with Nearby Thunderstorms 76 24.4 69 20.6 79 79 VRB 3 6 30.15 1021 2 3 0.11 2.79
1:08 am 01:08 Cloudy with Nearby Thunderstorms 74 23.3 70 21.1 88 88 VRB 3 6 30.15 1021 4 6 0.12 3.05
1:31 am 01:31 Mostly Clear 74 23.3 71 21.7 91 91 NNW 5 7 30.15 1021 10 16 0.12 3.05
1:53 am 01:53 Clear 73 22.8 71 21.7 94 94 Calm 30.11 1020 10 16 0.12 3.05
2:53 am 02:53 Clear 73 22.8 72 22.2 96 96 Calm 30.11 1020 10 16 0.00 0.00
3:53 am 03:53 Clear 72 22.2 71 21.7 97 97 N 3 6 30.11 1020 9 14 0.00 0.00
4:53 am 04:53 Partly Cloudy 72 22.2 71 21.7 97 97 Calm 30.11 1020 10 16 0.00 0.00
5:53 am 05:53 Clear 72 22.2 71 21.7 97 97 Calm 30.11 1020 9 14 0.00 0.00
6:53 am 06:53 Sunny 72 22.2 71 21.7 97 97 Calm 30.12 1020 8 13 0.00 0.00
7:53 am 07:53 Sunny 73 22.8 71 21.7 94 94 Calm 30.14 1021 10 16 0.00 0.00
8:53 am 08:53 Mostly Cloudy 77 25 72 22.2 85 85 Calm 30.15 1021 10 16 0.00 0.00
9:53 am 09:53 Sunny 80 26.7 72 22.2 76 76 ENE 3 6 30.16 1021 10 16 0.00 0.00
10:53 am 10:53 Mostly Sunny 82 27.8 72 22.2 72 72 VRB 3 6 30.16 1021 10 16 0.00 0.00
11:53 am 11:53 Mostly Sunny 85 29.4 73 22.8 68 68 VRB 5 7 30.16 1021 10 16 0.00 0.00
12:53 pm 12:53 Sunny 86 30 70 21.1 59 59 E 7 11 30.15 1021 10 16 0.00 0.00
1:53 pm 13:53 Mostly Cloudy 86 30 71 21.7 61 61 VRB 6 9 30.15 1021 10 16 0.00 0.00
2:53 pm 14:53 Sunny 88 31.1 70 21.1 55 55 E 9 15 30.13 1020 10 16 0.00 0.00
3:53 pm 15:53 Mostly Cloudy 86 30 71 21.7 61 61 NE 9 15 30.13 1020 10 16 0.00 0.00
4:53 pm 16:53 Mostly Cloudy 87 30.6 71 21.7 59 59 E 8 13 30.11 1020 10 16 0.00 0.00
5:53 pm 17:53 Mostly Sunny 84 28.9 74 23.3 72 72 SE 5 7 30.11 1020 10 16 0.07 1.78
6:53 pm 18:53 Mostly Cloudy with Light Rain 80 26.7 73 22.8 79 79 VRB 5 7 30.12 1020 10 16 0.05 1.27
7:53 pm 19:53 Sunny 81 27.2 73 22.8 77 77 Calm 30.12 1020 10 16 0.00 0.03
8:53 pm 20:53 Mostly Clear 79 26.1 73 22.8 82 82 Calm 30.14 1021 10 16 0.00 0.00
9:31 pm 21:31 Mostly Cloudy with Nearby Thunderstorms 80 26.7 73 22.8 79 79 E 3 6 30.15 1021 10 16 0.00 0.00
9:53 pm 21:53 Partly Cloudy 78 25.6 73 22.8 85 85 Calm 30.17 1022 7 11 0.00 0.00
10:53 pm 22:53 Hazy 77 25 71 21.7 82 82 Calm 30.18 1022 5 8 0.00 0.00
11:53 pm 23:53 Hazy 76 24.4 71 21.7 85 85 Calm 30.17 1022 5 8 0.00 0.00

Powered by AerisWeather